Location: Saint-Restitut
(44.3351°N, 4.7915°E)
Time: 15:18:52
(UTC+00:00)

CSL-04 Debris - Pass Details

Date: 28 February 2024
Orbit: 824 x 843 km, 98.8° (Epoch: 21 April)

Event Time Altitude Azimuth Distance (km) Brightness Sun altitude
Exits shadow 20:40:40 18° 230° (SW) 1,931 6.2 -34.6°
Maximum altitude 20:43:04 24° 267° (W) 1,652 6.1 -35.0°
Drops below altitude 10° 20:47:22 10° 320° (NW) 2,433 7.3 -35.7°
Sets 20:50:12 0° 334° (NNW) 3,371 8.0 -36.2°
